TimeEDT,TemperatureF,Dew PointF,Humidity,Sea Level PressureIn,VisibilityMPH,Wind Direction,Wind SpeedMPH,Gust SpeedMPH,PrecipitationIn,Events,Conditions,WindDirDegrees,DateUTC
12:16 AM,66.2,62.6,88,29.71,10.0,WSW,8.1,-,N/A,,Scattered Clouds,250,2013-05-23 04:16:00
12:36 AM,66.2,62.6,88,29.71,10.0,WSW,8.1,-,N/A,,Clear,250,2013-05-23 04:36:00
12:56 AM,64.4,62.6,94,29.72,10.0,WSW,5.8,-,N/A,,Clear,250,2013-05-23 04:56:00
1:11 AM,64.4,62.6,94,29.72,10.0,WSW,5.8,-,N/A,,Clear,240,2013-05-23 05:11:00
1:34 AM,64.4,62.6,94,29.72,7.0,WSW,4.6,-,N/A,,Clear,240,2013-05-23 05:34:00
1:54 AM,64.4,62.6,94,29.72,7.0,WSW,6.9,-,N/A,,Scattered Clouds,240,2013-05-23 05:54:00
2:14 AM,64.4,62.6,94,29.71,7.0,WSW,6.9,-,N/A,,Mostly Cloudy,240,2013-05-23 06:14:00
2:34 AM,64.4,62.6,94,29.72,7.0,WSW,5.8,-,N/A,,Mostly Cloudy,250,2013-05-23 06:34:00
2:54 AM,64.4,62.6,94,29.71,5.0,WSW,5.8,-,N/A,,Scattered Clouds,240,2013-05-23 06:54:00
3:16 AM,64.4,62.6,94,29.71,5.0,WSW,5.8,-,N/A,,Scattered Clouds,240,2013-05-23 07:16:00
3:31 AM,64.4,62.6,94,29.71,7.0,WSW,6.9,-,N/A,,Clear,240,2013-05-23 07:31:00
3:51 AM,64.4,60.8,88,29.71,10.0,SW,6.9,-,N/A,,Clear,230,2013-05-23 07:51:00
4:12 AM,64.4,60.8,88,29.71,10.0,WSW,5.8,-,N/A,,Mostly Cloudy,240,2013-05-23 08:12:00
4:32 AM,64.4,60.8,88,29.71,10.0,WSW,8.1,-,N/A,,Overcast,240,2013-05-23 08:32:00
4:52 AM,64.4,60.8,88,29.72,10.0,WSW,6.9,-,N/A,,Overcast,240,2013-05-23 08:52:00
5:12 AM,64.4,60.8,88,29.72,10.0,WSW,8.1,-,N/A,,Overcast,240,2013-05-23 09:12:00
5:32 AM,64.4,60.8,88,29.72,10.0,WSW,5.8,-,N/A,,Mostly Cloudy,250,2013-05-23 09:32:00
5:53 AM,62.6,60.8,94,29.73,10.0,WSW,5.8,-,N/A,,Scattered Clouds,250,2013-05-23 09:53:00
6:13 AM,62.6,60.8,94,29.73,10.0,WSW,5.8,-,N/A,,Mostly Cloudy,240,2013-05-23 10:13:00
6:33 AM,62.6,60.8,94,29.74,7.0,WSW,4.6,-,N/A,,Overcast,250,2013-05-23 10:33:00
6:53 AM,64.4,60.8,88,29.75,7.0,WSW,6.9,-,N/A,,Overcast,240,2013-05-23 10:53:00
7:13 AM,64.4,60.8,88,29.75,7.0,WSW,8.1,-,N/A,Rain,Light Rain,240,2013-05-23 11:13:00
7:33 AM,64.4,60.8,88,29.75,7.0,WSW,5.8,-,N/A,Rain,Light Rain,240,2013-05-23 11:33:00
7:53 AM,64.4,60.8,88,29.76,7.0,WSW,5.8,-,N/A,,Overcast,250,2013-05-23 11:53:00
8:13 AM,64.4,60.8,88,29.76,10.0,WSW,8.1,-,N/A,,Overcast,240,2013-05-23 12:13:00
8:34 AM,64.4,60.8,88,29.76,7.0,WSW,6.9,-,N/A,,Overcast,250,2013-05-23 12:34:00
8:54 AM,64.4,60.8,88,29.76,7.0,WSW,6.9,-,N/A,,Overcast,250,2013-05-23 12:54:00
9:14 AM,64.4,60.8,88,29.77,7.0,West,8.1,-,N/A,,Mostly Cloudy,260,2013-05-23 13:14:00
9:34 AM,66.2,60.8,83,29.77,7.0,WSW,8.1,-,N/A,,Mostly Cloudy,250,2013-05-23 13:34:00
9:54 AM,66.2,62.6,88,29.78,7.0,SW,8.1,-,N/A,,Mostly Cloudy,220,2013-05-23 13:54:00
10:14 AM,66.2,60.8,83,29.78,7.0,WSW,11.5,-,N/A,,Mostly Cloudy,250,2013-05-23 14:14:00
10:34 AM,68.0,60.8,78,29.78,7.0,WSW,12.7,-,N/A,,Mostly Cloudy,240,2013-05-23 14:34:00
10:54 AM,68.0,60.8,78,29.78,10.0,WSW,9.2,17.3,N/A,,Overcast,250,2013-05-23 14:54:00
11:14 AM,68.0,60.8,78,29.78,10.0,West,15.0,20.7,N/A,,Overcast,260,2013-05-23 15:14:00
11:35 AM,64.4,60.8,88,29.78,7.0,West,9.2,-,N/A,Rain,Light Rain,260,2013-05-23 15:35:00
11:55 AM,68.0,60.8,78,29.78,7.0,WSW,10.4,-,N/A,,Scattered Clouds,250,2013-05-23 15:55:00
12:15 PM,68.0,60.8,78,29.78,10.0,WNW,12.7,-,N/A,,Scattered Clouds,290,2013-05-23 16:15:00
12:35 PM,66.2,60.8,83,29.78,5.0,West,9.2,-,N/A,Rain,Light Rain,280,2013-05-23 16:35:00
12:55 PM,68.0,60.8,78,29.78,7.0,West,10.4,-,N/A,,Mostly Cloudy,270,2013-05-23 16:55:00
1:15 PM,66.2,60.8,83,29.78,10.0,West,10.4,-,N/A,,Mostly Cloudy,270,2013-05-23 17:15:00
1:35 PM,69.8,60.8,73,29.78,7.0,WSW,8.1,-,N/A,,Scattered Clouds,250,2013-05-23 17:35:00
1:55 PM,60.8,55.4,82,29.82,7.0,North,18.4,31.1,N/A,,Mostly Cloudy,10,2013-05-23 17:55:00
2:15 PM,55.4,53.6,94,29.83,4.0,NNE,12.7,19.6,N/A,Rain,Light Rain,20,2013-05-23 18:15:00
2:36 PM,53.6,51.8,94,29.85,4.0,NNE,10.4,17.3,N/A,Rain,Rain,20,2013-05-23 18:36:00
2:56 PM,51.8,50.0,94,29.85,7.0,NNE,11.5,18.4,N/A,Rain,Light Rain,20,2013-05-23 18:56:00
3:16 PM,51.8,48.2,88,29.87,7.0,North,16.1,25.3,N/A,Rain,Light Rain,10,2013-05-23 19:16:00
3:36 PM,51.8,48.2,88,29.88,7.0,North,15.0,19.6,N/A,Rain,Light Rain,10,2013-05-23 19:36:00
3:56 PM,50.0,48.2,94,29.90,10.0,North,17.3,23.0,N/A,Rain,Light Rain,360,2013-05-23 19:56:00
4:16 PM,50.0,46.4,87,29.91,10.0,North,15.0,24.2,N/A,Rain,Light Rain,10,2013-05-23 20:16:00
4:36 PM,50.0,46.4,87,29.91,10.0,North,15.0,19.6,N/A,Rain,Light Rain,360,2013-05-23 20:36:00
4:51 PM,50.0,46.4,87,29.92,5.0,North,17.3,24.2,N/A,Rain,Light Rain,10,2013-05-23 20:51:00
5:11 PM,48.2,46.4,93,29.93,5.0,North,16.1,20.7,N/A,Rain,Light Rain,350,2013-05-23 21:11:00
5:31 PM,48.2,46.4,93,29.94,7.0,North,12.7,17.3,N/A,Rain,Light Rain,360,2013-05-23 21:31:00
5:52 PM,48.2,44.6,87,29.96,10.0,North,17.3,21.9,N/A,,Light Drizzle,10,2013-05-23 21:52:00
6:12 PM,48.2,46.4,93,29.97,10.0,North,11.5,16.1,N/A,Rain,Light Rain,350,2013-05-23 22:12:00
6:32 PM,48.2,44.6,87,29.98,10.0,NNW,10.4,19.6,N/A,Rain,Light Rain,340,2013-05-23 22:32:00
6:52 PM,46.4,44.6,93,30.00,10.0,North,9.2,-,N/A,Rain,Light Rain,350,2013-05-23 22:52:00
7:12 PM,46.4,44.6,93,30.00,10.0,NNW,8.1,-,N/A,Rain,Light Rain,340,2013-05-23 23:12:00
7:32 PM,46.4,44.6,93,30.02,10.0,NNW,12.7,19.6,N/A,,Drizzle,340,2013-05-23 23:32:00
7:52 PM,46.4,44.6,93,30.03,10.0,NNW,10.4,17.3,N/A,,Overcast,340,2013-05-23 23:52:00
8:12 PM,46.4,42.8,87,30.05,10.0,North,15.0,20.7,N/A,Rain,Light Rain,360,2013-05-24 00:12:00
8:32 PM,46.4,44.6,93,30.06,10.0,North,11.5,19.6,N/A,Rain,Light Rain,360,2013-05-24 00:32:00
8:53 PM,46.4,42.8,87,30.07,10.0,North,17.3,21.9,N/A,,Overcast,350,2013-05-24 00:53:00
9:13 PM,44.6,39.2,81,30.08,10.0,North,18.4,28.8,N/A,,Overcast,360,2013-05-24 01:13:00
9:33 PM,44.6,39.2,81,30.09,10.0,North,12.7,18.4,N/A,,Overcast,10,2013-05-24 01:33:00
9:53 PM,44.6,39.2,81,30.10,10.0,North,11.5,-,N/A,,Overcast,360,2013-05-24 01:53:00
10:13 PM,46.4,42.8,87,30.10,10.0,North,5.8,-,N/A,,Overcast,350,2013-05-24 02:13:00
10:33 PM,46.4,42.8,87,30.11,10.0,NNW,6.9,-,N/A,,Overcast,340,2013-05-24 02:33:00
10:53 PM,46.4,41.0,81,30.12,10.0,North,8.1,-,N/A,,Overcast,350,2013-05-24 02:53:00
11:13 PM,46.4,41.0,81,30.13,10.0,North,8.1,-,N/A,,Overcast,350,2013-05-24 03:13:00
11:33 PM,46.4,39.2,76,30.13,10.0,NNW,8.1,-,N/A,,Overcast,340,2013-05-24 03:33:00
11:54 PM,46.4,39.2,76,30.13,10.0,NNW,8.1,-,N/A,,Overcast,340,2013-05-24 03:54:00